KA7KDX-4 Weather Reports


Display with metric or nautical units.
time (UTC)temp
F
wind
direction
speed
MPH
gust
MPH
rain 1hr
in
rain 24hr
in
rain mn
in
humidity
%
barometer
mb
20260505183505 61 190 8.0 15.0 0.00 0.00 0.00 38 1004.9
20260505183005 61 201 9.0 14.0 0.00 0.00 0.00 39 1004.8
20260505182505 61 196 8.0 13.0 0.00 0.00 0.00 39 1004.9
20260505182005 61 193 8.0 14.0 0.00 0.00 0.00 39 1004.9
20260505181506 61 185 9.0 14.0 0.00 0.00 0.00 39 1005.0
20260505181006 60 194 9.0 13.0 0.00 0.00 0.00 39 1005.0
20260505180506 60 195 10.0 16.0 0.00 0.00 0.00 38 1004.9
20260505180005 60 192 8.0 15.0 0.00 0.00 0.00 38 1005.1
20260505175505 60 186 8.0 14.0 0.00 0.00 0.00 38 1005.3
20260505175005 60 187 9.0 12.0 0.00 0.00 0.00 38 1005.3
20260505174505 60 184 9.0 14.0 0.00 0.00 0.00 37 1005.3
20260505174005 60 190 11.0 22.0 0.00 0.00 0.00 37 1005.2
20260505173505 59 183 12.0 19.0 0.00 0.00 0.00 37 1005.3
20260505173006 59 190 11.0 17.0 0.00 0.00 0.00 38 1005.4
20260505172506 59 191 12.0 23.0 0.00 0.00 0.00 38 1005.3
20260505172005 59 183 11.0 22.0 0.00 0.00 0.00 38 1005.3
20260505171506 59 179 16.0 24.0 0.00 0.00 0.00 39 1005.2
20260505171005 58 183 13.0 23.0 0.00 0.00 0.00 40 1005.3
20260505170505 58 181 12.0 22.0 0.00 0.00 0.00 39 1005.3
20260505170005 58 185 12.0 17.0 0.00 0.00 0.00 39 1005.4
20260505165505 58 175 11.0 16.0 0.00 0.00 0.00 40 1005.5
20260505165005 57 172 13.0 17.0 0.00 0.00 0.00 41 1005.7
20260505164506 57 169 13.0 18.0 0.00 0.00 0.00 41 1005.8
20260505164006 56 172 12.0 17.0 0.00 0.00 0.00 42 1005.9
20260505163506 56 173 13.0 18.0 0.00 0.00 0.00 44 1006.0
20260505163007 56 178 11.0 17.0 0.00 0.00 0.00 45 1006.1
20260505162505 56 171 12.0 17.0 0.00 0.00 0.00 44 1006.0
20260505162005 56 171 10.0 14.0 0.00 0.00 0.00 44 1006.2
20260505161505 56 175 12.0 16.0 0.00 0.00 0.00 44 1006.2
20260505161005 55 171 8.0 13.0 0.00 0.00 0.00 46 1006.3
20260505160505 55 178 8.0 13.0 0.00 0.00 0.00 46 1006.3
20260505153006 54 183 11.0 19.0 0.00 0.00 0.00 53 1006.4
20260505152505 54 180 11.0 16.0 0.00 0.00 0.00 54 1006.4
20260505152005 54 183 11.0 18.0 0.00 0.00 0.00 55 1006.5
20260505151505 54 180 9.0 13.0 0.00 0.00 0.00 57 1006.6
20260505151006 53 186 9.0 13.0 0.00 0.00 0.00 59 1006.7
20260505150506 53 188 10.0 15.0 0.00 0.00 0.00 60 1006.9
20260505140505 53 192 12.0 18.0 0.00 0.00 0.00 59 1006.7
20260505125005 55 192 10.0 16.0 0.00 0.00 0.00 54 1005.1
20260505124506 55 191 9.0 14.0 0.00 0.00 0.00 56 1005.1
20260505124006 55 195 10.0 14.0 0.00 0.00 0.00 55 1005.0
20260505123506 55 191 10.0 14.0 0.00 0.00 0.00 56 1005.0
20260505123005 55 187 10.0 16.0 0.00 0.00 0.00 56 1005.0
20260505122505 55 186 9.0 13.0 0.00 0.00 0.00 59 1005.1
20260505122005 55 188 8.0 13.0 0.00 0.00 0.00 59 1005.1
20260505121505 54 181 10.0 16.0 0.00 0.00 0.00 62 1005.3
20260505121005 53 185 9.0 12.0 0.00 0.00 0.00 66 1005.6
20260505120505 53 204 6.0 10.0 0.00 0.00 0.00 69 1005.8
20260505120006 53 205 6.0 9.0 0.00 0.00 0.00 69 1005.8
20260505115506 53 202 6.0 9.0 0.00 0.00 0.00 68 1005.8
20260505115006 53 201 6.0 10.0 0.00 0.00 0.00 67 1005.7
20260505114505 54 210 6.0 9.0 0.00 0.00 0.00 66 1005.6
20260505114005 54 216 7.0 12.0 0.00 0.00 0.00 63 1005.4
20260505113505 55 213 8.0 11.0 0.01 0.00 0.00 63 1005.3
20260505113005 55 220 6.0 13.0 0.00 0.00 0.00 61 1005.1
20260505112505 56 220 4.0 12.0 0.00 0.00 0.00 57 1004.8
20260505112005 56 249 5.0 8.0 0.00 0.00 0.00 54 1004.8
20260505111506 56 238 4.0 7.0 0.00 0.00 0.00 54 1004.9
20260505111006 56 208 4.0 6.0 0.00 0.00 0.00 56 1005.0
20260505110505 56 185 5.0 8.0 0.00 0.00 0.00 55 1005.0
20260505102006 56 156 9.0 12.0 0.00 0.00 0.00 55 1004.5
20260505101505 56 158 8.0 12.0 0.00 0.00 0.00 55 1004.6
20260505101005 56 162 9.0 11.0 0.00 0.00 0.00 55 1004.7
20260505100505 56 160 10.0 14.0 0.00 0.00 0.00 55 1004.7
20260505100005 56 168 10.0 13.0 0.00 0.00 0.00 56 1004.8
20260505095505 56 201 12.0 19.0 0.00 0.00 0.00 53 1004.8
20260505095005 56 196 13.0 18.0 0.01 0.00 0.00 54 1004.8
20260505094505 56 191 12.0 19.0 0.04 0.00 0.00 56 1004.9
20260505094006 56 197 14.0 20.0 0.05 0.00 0.00 56 1004.8
20260505093506 56 197 14.0 20.0 0.03 0.00 0.00 55 1004.7
20260505093006 57 196 15.0 23.0 0.01 0.00 0.00 53 1004.7
20260505092506 57 193 14.0 20.0 0.00 0.00 0.00 54 1004.9
20260505092005 57 194 14.0 20.0 0.00 0.00 0.00 55 1004.9
20260505091505 57 187 13.0 22.0 0.00 0.00 0.00 56 1004.9
20260505091005 57 196 14.0 20.0 0.00 0.00 0.00 54 1004.8
20260505090505 57 188 12.0 19.0 0.00 0.00 0.00 55 1004.8
20260505090005 57 192 15.0 26.0 0.00 0.00 0.00 52 1004.5
20260505085506 57 192 15.0 20.0 0.00 0.00 0.00 54 1004.5
20260505085006 58 190 14.0 21.0 0.00 0.00 0.00 54 1004.5
20260505084506 58 185 14.0 24.0 0.00 0.00 0.00 54 1004.5
20260505084005 58 180 12.0 20.0 0.00 0.00 0.00 52 1004.5
20260505083505 58 185 12.0 19.0 0.00 0.00 0.00 52 1004.5
20260505083005 58 178 12.0 20.0 0.00 0.00 0.00 53 1004.5
20260505082505 58 180 11.0 20.0 0.00 0.00 0.00 54 1004.5
20260505082005 58 179 14.0 20.0 0.00 0.00 0.00 55 1004.5
20260505081505 58 180 15.0 22.0 0.00 0.00 0.00 54 1004.4
20260505081005 57 177 14.0 20.0 0.00 0.00 0.00 55 1004.5
20260505080506 57 175 14.0 20.0 0.00 0.00 0.00 57 1004.6
20260505080006 57 173 16.0 29.0 0.00 0.00 0.00 57 1004.8
20260505075506 57 170 18.0 25.0 0.00 0.00 0.00 58 1004.8
20260505075006 57 158 12.0 17.0 0.00 0.00 0.00 59 1004.7
20260505074505 57 164 12.0 16.0 0.00 0.00 0.00 55 1004.8
20260505074005 57 160 12.0 17.0 0.00 0.00 0.00 56 1004.6
20260505073505 58 167 16.0 32.0 0.00 0.00 0.00 55 1004.6
20260505073005 58 169 19.0 32.0 0.00 0.00 0.00 53 1004.2
20260505072505 58 165 12.0 26.0 0.00 0.00 0.00 53 1004.4
20260505072005 58 169 16.0 29.0 0.00 0.00 0.00 53 1004.4
20260505071506 58 175 13.0 19.0 0.00 0.00 0.00 52 1004.2
20260505071006 58 176 12.0 17.0 0.00 0.00 0.00 51 1004.3
20260505070506 58 171 14.0 19.0 0.00 0.00 0.00 53 1004.3
20260505070005 58 170 14.0 20.0 0.00 0.00 0.00 52 1004.2
20260505065505 58 168 17.0 22.0 0.00 0.00 0.00 54 1004.3
20260505065005 57 174 15.0 21.0 0.00 0.00 0.00 54 1004.3
20260505064505 57 176 15.0 23.0 0.00 0.00 0.00 54 1004.3
20260505064005 58 171 19.0 27.0 0.01 0.00 0.00 54 1004.2
20260505063505 58 173 20.0 28.0 0.01 0.00 0.00 54 1004.1
20260505063006 58 171 22.0 31.0 0.00 0.00 0.00 53 1004.1
20260505062506 57 168 20.0 26.0 0.00 0.00 0.00 53 1004.1
20260505062006 57 172 20.0 28.0 0.00 0.00 0.00 54 1004.2
20260505061505 57 173 17.0 25.0 0.00 0.00 0.00 55 1004.3
20260505061005 57 173 19.0 27.0 0.00 0.00 0.00 56 1004.4
20260505060506 57 171 15.0 23.0 0.00 0.00 0.00 57 1004.3
20260505060005 57 169 16.0 27.0 0.00 0.00 0.00 57 1004.5
20260505055505 57 173 16.0 24.0 0.01 0.00 0.00 58 1004.5
20260505055005 57 174 20.0 27.0 0.01 0.00 0.00 58 1004.5
20260505054505 57 175 18.0 27.0 0.01 0.00 0.00 59 1004.5
20260505054006 57 174 23.0 32.0 0.01 0.00 0.00 59 1004.3
20260505053506 57 172 26.0 34.0 0.01 0.00 0.00 59 1004.3
20260505053005 57 172 25.0 34.0 0.01 0.00 0.00 59 1004.3
20260505052506 57 169 21.0 33.0 0.01 0.00 0.00 60 1004.2
20260505052005 57 171 24.0 33.0 0.04 0.00 0.00 60 1004.1
20260505051505 57 175 26.0 34.0 0.07 0.00 0.00 59 1004.1
20260505051005 58 176 27.0 35.0 0.06 0.00 0.00 58 1004.0
20260505050505 58 177 22.0 33.0 0.05 0.00 0.00 57 1003.7
20260505041505 61 148 10.0 16.0 0.00 0.00 0.00 46 1002.6
20260505041005 61 148 11.0 15.0 0.00 0.00 0.00 46 1002.4
20260505040506 61 150 13.0 21.0 0.00 0.00 0.00 45 1002.3
20260505040006 61 149 11.0 18.0 0.00 0.00 0.00 46 1002.3
20260505035505 62 148 10.0 15.0 0.00 0.00 0.00 45 1002.2
20260505035005 62 150 14.0 20.0 0.00 0.00 0.00 45 1002.0
20260505034505 62 152 16.0 22.0 0.00 0.00 0.00 45 1001.9
20260505034005 62 148 12.0 20.0 0.00 0.00 0.00 44 1002.0
20260505033505 62 152 18.0 25.0 0.00 0.00 0.00 43 1001.7
20260505033005 62 150 16.0 23.0 0.00 0.00 0.00 44 1001.6
20260505032505 62 151 18.0 25.0 0.00 0.00 0.00 44 1001.4
20260505032006 63 149 17.0 27.0 0.00 0.00 0.00 43 1001.2
20260505031506 63 150 15.0 23.0 0.00 0.00 0.00 41 1001.2
20260505031006 63 149 17.0 21.0 0.00 0.00 0.00 42 1001.0
20260505030505 64 149 15.0 19.0 0.00 0.00 0.00 41 1000.9
20260505030005 65 150 12.0 17.0 0.00 0.00 0.00 39 1000.7
20260505025506 65 148 11.0 20.0 0.00 0.00 0.00 38 1000.5
20260505025005 65 151 11.0 29.0 0.00 0.00 0.00 37 1000.4
20260505024505 65 150 10.0 14.0 0.00 0.00 0.00 36 1000.4
20260505024005 64 148 9.0 15.0 0.00 0.00 0.00 36 1000.5
20260505023505 64 149 10.0 17.0 0.00 0.00 0.00 39 1000.5
20260505023006 65 144 7.0 11.0 0.00 0.00 0.00 39 1000.2
20260505022506 66 142 5.0 8.0 0.00 0.00 0.00 37 999.9
20260505022005 67 143 4.0 6.0 0.00 0.00 0.00 35 999.6
20260505021505 67 154 5.0 7.0 0.00 0.00 0.00 34 999.4
20260505021005 68 157 4.0 7.0 0.00 0.00 0.00 33 999.1
20260505020505 68 158 5.0 10.0 0.00 0.00 0.00 32 999.0
20260505020005 68 169 7.0 9.0 0.00 0.00 0.00 31 998.8
20260505015505 69 163 7.0 10.0 0.00 0.00 0.00 31 998.8
20260505015005 69 170 8.0 12.0 0.00 0.00 0.00 31 998.7
20260505014506 69 171 7.0 14.0 0.00 0.00 0.00 31 998.8
20260505014006 69 164 7.0 10.0 0.00 0.00 0.00 31 998.8
20260505013506 69 155 7.0 12.0 0.00 0.00 0.00 31 998.8
20260505013006 69 148 6.0 17.0 0.00 0.00 0.00 31 998.7
20260505012505 69 146 5.0 21.0 0.00 0.00 0.00 30 998.8
20260505012005 69 150 5.0 21.0 0.00 0.00 0.00 30 998.9
20260505011506 69 168 4.0 8.0 0.00 0.00 0.00 30 998.9
20260505011005 69 168 4.0 7.0 0.00 0.00 0.00 29 998.9
20260505010505 69 164 6.0 9.0 0.00 0.00 0.00 28 998.9
20260505010005 69 148 4.0 8.0 0.00 0.00 0.00 29 999.0
20260505005506 69 144 5.0 13.0 0.00 0.00 0.00 29 999.1
20260505005006 69 142 6.0 22.0 0.00 0.00 0.00 30 999.2
20260505004506 69 135 8.0 27.0 0.00 0.00 0.00 31 999.2
20260505004005 69 134 13.0 26.0 0.00 0.00 0.00 30 999.3
20260505003505 69 132 10.0 26.0 0.00 0.00 0.00 32 999.3
20260505003005 69 122 14.0 31.0 0.00 0.00 0.00 32 999.4
20260505002505 69 122 9.0 22.0 0.00 0.00 0.00 32 999.4
20260505002005 68 129 6.0 15.0 0.00 0.00 0.00 31 999.4
20260505001505 68 150 2.0 6.0 0.00 0.00 0.00 31 999.5
20260505001005 68 142 4.0 13.0 0.00 0.00 0.00 31 999.6
20260505000506 68 147 3.0 10.0 0.00 0.00 0.00 32 999.7
20260505000006 68 193 4.0 6.0 0.00 0.00 0.00 33 999.9
20260504235506 68 229 5.0 9.0 0.00 0.00 0.00 34 1000.1
20260504235005 68 234 7.0 13.0 0.00 0.00 0.00 34 1000.1
20260504234505 68 231 7.0 12.0 0.00 0.00 0.00 34 1000.1
20260504234005 68 244 8.0 14.0 0.00 0.00 0.00 33 1000.1
20260504233505 68 214 7.0 12.0 0.00 0.00 0.00 33 1000.1
20260504233005 68 213 7.0 24.0 0.00 0.00 0.00 33 1000.1
20260504232505 68 236 7.0 12.0 0.00 0.00 0.00 33 1000.1
20260504232007 69 215 7.0 13.0 0.00 0.00 0.00 33 1000.0
20260504231506 69 225 9.0 13.0 0.00 0.00 0.00 33 999.9
20260504231006 69 233 8.0 13.0 0.00 0.00 0.00 33 999.8
20260504230505 70 216 6.0 14.0 0.00 0.00 0.00 32 999.8
20260504230005 70 207 9.0 14.0 0.00 0.00 0.00 32 999.9
20260504225505 70 221 10.0 15.0 0.00 0.00 0.00 32 1000.1
20260504225005 69 222 9.0 16.0 0.00 0.00 0.00 31 1000.2
20260504224505 69 206 11.0 17.0 0.00 0.00 0.00 31 1000.2
20260504224005 69 213 9.0 13.0 0.00 0.00 0.00 31 1000.3
20260504223505 70 217 9.0 14.0 0.00 0.00 0.00 32 1000.3
20260504223006 69 179 10.0 14.0 0.00 0.00 0.00 32 1000.4
20260504222506 69 182 11.0 17.0 0.00 0.00 0.00 31 1000.3
20260504222006 69 159 10.0 14.0 0.00 0.00 0.00 30 1000.4
20260504221505 69 151 10.0 15.0 0.00 0.00 0.00 30 1000.5
20260504221005 69 167 10.0 14.0 0.00 0.00 0.00 30 1000.5
20260504220505 69 169 11.0 15.0 0.00 0.00 0.00 31 1000.7
20260504220005 69 167 11.0 18.0 0.00 0.00 0.00 31 1000.8
20260504215505 68 160 11.0 16.0 0.00 0.00 0.00 32 1001.1
20260504215006 68 167 14.0 24.0 0.00 0.00 0.00 33 1001.5
20260504214506 68 279 12.0 34.0 0.00 0.00 0.00 34 1001.8
20260504214006 68 311 12.0 27.0 0.00 0.00 0.00 34 1001.9
20260504213505 67 354 12.0 33.0 0.00 0.00 0.00 35 1001.9
20260504213005 68 172 12.0 37.0 0.00 0.00 0.00 36 1002.2
20260504212505 67 318 19.0 39.0 0.00 0.00 0.00 36 1002.2
20260504212005 67 313 14.0 34.0 0.00 0.00 0.00 34 1002.1
20260504211505 67 303 6.0 14.0 0.00 0.00 0.00 32 1002.3
20260504211005 67 284 12.0 16.0 0.00 0.00 0.00 32 1002.3
20260504210505 67 270 12.0 17.0 0.00 0.00 0.00 32 1002.3
20260504210006 66 285 13.0 20.0 0.00 0.00 0.00 31 1002.2
20260504205506 66 272 14.0 21.0 0.00 0.00 0.00 32 1002.1
20260504205006 66 286 13.0 19.0 0.00 0.00 0.00 34 1002.1
20260504204505 66 283 14.0 19.0 0.00 0.00 0.00 34 1002.3
20260504204005 65 281 13.0 20.0 0.00 0.00 0.00 35 1002.4
20260504203505 65 288 9.0 15.0 0.00 0.00 0.00 36 1002.5
20260504203005 65 278 12.0 16.0 0.00 0.00 0.00 38 1002.7
20260504202505 65 274 14.0 18.0 0.00 0.00 0.00 37 1002.8
20260504202005 64 295 13.0 17.0 0.00 0.00 0.00 41 1002.8
20260504201506 65 304 9.0 15.0 0.00 0.00 0.00 42 1002.7
20260504201006 66 303 7.0 13.0 0.00 0.00 0.00 40 1002.2
20260504200506 67 288 10.0 15.0 0.00 0.00 0.00 35 1002.1
20260504200005 67 271 12.0 18.0 0.00 0.00 0.00 36 1001.9
20260504195505 67 283 9.0 16.0 0.00 0.00 0.00 37 1002.0
20260504195005 67 310 15.0 45.0 0.00 0.00 0.00 35 1001.8
20260504194505 68 329 34.0 47.0 0.00 0.00 0.00 34 1001.5
20260504194005 68 333 35.0 45.0 0.00 0.00 0.00 31 1001.2
20260504193505 68 333 35.0 45.0 0.00 0.00 0.00 30 1000.9
20260504193006 68 311 37.0 43.0 0.00 0.00 0.00 30 1001.3
20260504192506 68 324 38.0 42.0 0.00 0.00 0.00 31 1001.1
20260504192005 68 309 36.0 42.0 0.00 0.00 0.00 31 1000.8
20260504191505 69 323 38.0 43.0 0.00 0.00 0.00 31 1001.0
20260504191005 69 335 39.0 42.0 0.00 0.00 0.00 31 1000.9
20260504190505 70 342 39.0 43.0 0.00 0.00 0.00 31 1000.8
20260504190005 70 336 39.0 45.0 0.00 0.00 0.00 30 1000.6
20260504185505 70 335 38.0 42.0 0.00 0.00 0.00 29 1000.5
20260504185005 71 338 40.0 44.0 0.00 0.00 0.00 30 1000.4
20260504184506 72 337 39.0 44.0 0.00 0.00 0.00 30 1000.2
20260504184006 72 332 39.0 44.0 0.00 0.00 0.00 30 1000.1